Tracking 29892 objects as of 21-Nov-2024
HD Live streaming from Space Station
objects crossing your sky now

STARLINK-5369

Track STARLINK-5369 now!
10-day predictions
STARLINK-5369 is classified as:


NORAD ID: 54837
Int'l Code: 2022-177T
Perigee: 565.3 km
Apogee: 567.2 km
Inclination: 43.0 °
Period: 95.8 minutes
Semi major axis: 6937 km
RCS: Unknown
Launch date: December 28, 2022
Source: United States (US)
Launch site: AIR FORCE EASTERN TEST RANGE (AFETR)
Your satellite tracking list
Your tracking list is empty




NASA's NSSDC Master Catalog

Two Line Element Set (TLE):
1 54837U 22177T   24326.00939702  .00004587  00000-0  35446-3 0  9992
2 54837  43.0024 186.9955 0001381 270.1565  89.9119 15.02529476104726
Source of the keplerian elements: AFSPC